Location: Esterri de Aneo
(42.6284°N, 1.1223°E)
Time: 16:07:54
(UTC+00:00)

Cosmos 1244 Rocket - Pass Details

Date: 11 December 2025
Orbit: 952 x 998 km, 83.0° (Epoch: 22 January)

Event Time Altitude Azimuth Distance (km) Brightness Sun altitude
Rises 18:25:02 0° 352° (N) 3,699 7.5 -21.8°
Reaches altitude 10° 18:27:35 10° 354° (N) 2,741 6.8 -22.3°
Maximum altitude 18:33:53 83° 82° (E) 984 4.3 -23.4°
Drops below altitude 10° 18:40:03 10° 171° (S) 2,691 6.8 -24.5°
Sets 18:42:32 0° 172° (S) 3,628 7.5 -25.0°
